Temperature
17 17 17 17 17 17 17 17 17 18 18 17 16 16 16 15 16 15 15 15 16 15 15 15 15 15 15 15 15 15 14 14 14 14 14 14 13 13
17 17 17 17 17 17 17 17 17 17 17 17 16 16 15 15 15 15 15 15 15 15 15 15 15 15 15 15 14 14 14 14 14 14 14 13 13 13
17 17 17 17 17 17 16 16 16 16 17 16 16 16 16 15 15 15 15 15 15 15 15 15 15 15 15 14 14 14 14 14 14 13 13 13 13 13
16 16 16 16 17 16 16 16 16 16 16 16 16 16 15 15 15 15 15 15 15 15 15 15 15 15 14 14 14 14 14 14 13 13 13 13 13 13
16 16 16 16 16 16 16 16 16 16 16 16 16 16 15 15 15 15 15 15 15 15 15 15 15 15 14 14 14 14 14 13 13 13 13 13 13 13
16 16 16 16 16 16 16 16 16 16 16 16 16 16 15 15 15 15 15 15 15 15 15 15 15 15 14 14 14 14 13 13 13 13 13 13 12 12
16 16 16 16 16 16 16 16 15 15 16 16 16 16 15 15 15 15 15 15 15 15 14 14 14 14 14 14 14 13 13 13 13 13 12 12 12 12
16 16 16 16 16 16 16 16 16 15 15 15 16 15 15 15 15 15 15 15 15 15 14 14 14 14 14 13 13 13 13 13 13 12 12 12 12 12
16 16 16 16 16 16 16 16 15 15 15 15 15 15 15 14 14 14 14 14 14 14 14 14 14 14 13 13 13 13 13 13 12 12 12 12 12 12
16 15 15 15 15 15 15 15 15 15 15 15 15 15 14 14 14 14 14 14 14 14 14 14 14 14 13 13 13 13 13 12 12 12 12 12 11 11
16 15 15 15 15 15 15 15 15 15 15 15 15 15 15 15 14 14 14 14 14 14 14 13 13 13 13 13 13 13 12 12 12 12 11 11 11 11
16 15 16 15 15 15 15 15 14 15 14 15 14 14 14 14 14 14 14 14 14 14 14 13 13 13 13 13 12 12 12 12 11 11 11 11 11 10
15 15 15 15 15 15 15 15 15 15 14 14 14 14 14 14 14 14 14 14 13 14 13 13 13 13 13 13 12 12 12 11 11 11 11 11 11 10
15 15 15 15 15 15 15 15 15 14 14 14 14 14 14 14 14 13 14 13 13 13 13 13 12 12 12 12 12 12 11 11 11 11 10 10 10 10
15 15 15 15 15 15 14 14 14 14 14 14 14 14 14 14 14 13 13 13 13 13 13 13 12 12 12 12 12 12 11 11 11 10 10 10 10 10
15 15 15 15 14 14 14 14 14 13 13 14 14 14 14 13 13 13 13 13 13 13 13 12 12 12 12 11 12 12 11 11 11 10 10 10 10 10
14 14 14 14 14 14 14 14 13 13 13 13 13 13 13 13 13 13 13 12 12 12 12 12 12 12 11 11 11 11 11 11 11 10 10 10 10 10
14 14 14 14 14 14 14 14 13 13 13 13 13 13 13 13 13 12 12 12 12 12 12 12 12 11 11 11 11 11 11 11 10 10 10 10 10 10
14 14 14 14 14 14 14 14 13 13 13 13 12 12 12 12 12 12 12 12 12 12 11 11 11 11 11 11 11 11 10 10 10 10 10 10 10 10
14 14 14 14 14 13 13 13 13 13 13 12 12 12 12 12 12 12 12 11 12 11 11 11 11 11 11 11 11 11 10 10 10 10 10 10 10 9
14 14 14 13 13 13 13 13 13 13 12 12 12 12 11 11 11 11 11 11 11 11 11 11 11 10 10 10 10 10 10 10 10 10 9 10 10 10
13 13 13 13 13 13 13 12 12 12 12 12 12 11 11 11 11 11 11 11 11 11 11 11 10 10 10 10 10 10 10 10 10 9 9 9 9 9
13 13 13 13 13 13 12 12 12 12 11 11 11 11 11 11 11 11 11 11 11 11 10 10 10 10 10 10 10 10 10 10 10 9 9 9 9 9
Wind_Speed
2 2 2 1 1 1 1 2 2 2 2 2 2 2 2 2 3 3 3 6 7 7 6 6 5 5 5 5 4 4 3 3 3 3 3 3 4 4
1 1 1 1 1 2 2 2 2 3 1 1 1 1 1 2 4 3 4 7 9 8 7 6 6 6 5 5 5 4 4 3 3 3 3 4 4 4
2 2 2 1 2 2 2 2 2 2 2 1 1 2 2 2 2 3 5 5 6 10 8 7 7 7 6 6 6 5 5 4 4 4 4 4 4 4
2 2 2 2 2 2 2 2 1 2 2 2 1 2 3 2 2 3 3 4 4 9 9 9 8 8 7 7 7 6 5 5 5 5 4 4 4 5
3 3 3 2 3 2 3 2 2 2 2 3 2 1 2 2 2 3 3 2 4 6 9 10 9 9 8 8 8 7 7 6 6 6 5 5 5 5
3 3 3 3 3 3 3 3 2 2 2 3 3 3 2 2 3 3 3 3 3 3 3 5 8 11 11 10 9 8 7 7 6 6 6 6 5 5
3 3 3 1 1 2 2 2 3 3 3 3 3 3 3 2 3 3 3 3 3 3 3 4 5 6 7 10 9 7 7 7 7 7 7 7 6 5
4 4 4 4 3 3 2 2 3 4 4 4 4 3 3 4 3 4 3 3 3 2 3 4 3 3 3 4 5 7 7 7 7 7 7 7 7 6
4 4 4 3 4 4 5 6 4 4 4 6 5 5 4 4 4 5 4 5 4 3 3 4 4 4 3 2 7 7 7 7 6 6 7 7 7 7
5 5 5 4 4 4 5 4 5 5 6 6 5 5 4 4 5 6 5 6 5 4 4 5 4 3 3 2 8 8 7 7 7 6 6 7 8 9
6 5 6 6 3 4 6 5 5 5 5 5 4 4 3 4 5 5 5 5 5 4 3 4 4 3 3 3 5 10 9 8 8 7 7 7 8 9
6 6 5 6 4 5 6 6 7 6 5 5 6 7 7 8 8 8 7 6 5 4 2 3 4 3 3 3 3 4 6 8 10 9 8 7 7 7
6 6 5 7 6 7 8 7 6 6 6 6 6 6 6 5 6 6 6 6 6 5 2 3 4 4 4 3 3 2 3 3 5 7 9 10 9 7
6 5 3 6 7 8 7 6 5 7 7 6 6 6 5 5 5 5 5 6 5 6 4 4 5 4 5 5 3 2 3 3 4 4 4 7 10 11
6 3 2 4 7 7 9 8 7 7 7 7 7 6 5 4 4 4 5 5 6 6 5 6 6 6 6 6 4 3 3 3 3 3 4 4 4 5
6 4 6 7 8 7 6 7 7 7 7 7 7 6 5 5 5 5 5 5 5 5 5 7 7 6 6 6 5 4 4 3 3 3 4 4 4 5
4 5 5 5 6 6 6 6 7 7 7 7 7 6 6 6 5 5 5 5 5 5 4 4 5 6 6 6 5 5 5 5 4 3 4 5 5 5
5 6 6 6 7 6 7 7 7 7 6 6 7 7 7 6 6 5 5 5 6 6 5 4 3 3 5 5 6 6 5 5 4 4 5 6 6 5
6 8 7 7 7 7 7 7 7 6 6 6 6 6 6 6 6 5 5 5 6 6 5 4 4 5 6 6 5 6 5 5 5 5 6 6 6 5
8 8 8 7 7 7 7 7 6 5 5 5 5 6 6 6 6 6 5 6 6 6 5 5 5 5 7 6 5 5 8 6 6 6 6 6 5 4
8 8 8 7 7 7 6 6 6 5 5 5 5 5 5 6 6 6 6 5 6 6 6 5 4 5 6 5 5 5 5 7 6 6 6 6 6 6
8 8 7 7 6 6 6 6 6 6 6 6 6 6 6 6 6 6 6 6 5 6 7 5 4 5 6 6 7 6 6 5 6 8 7 7 6 6
8 7 7 7 7 6 6 7 7 7 7 7 7 6 6 6 6 6 6 6 6 6 6 5 5 5 6 7 7 6 6 6 5 5 6 8 11 9
Wind_Direction
206 202 227 196 224 254 253 259 273 245 179 170 177 155 185 175 159 195 189 173 187 190 191 191 191 191 193 194 205 213 224 234 247 247 249 255 264 264
223 237 238 201 217 241 240 253 276 279 266 152 177 148 172 200 168 202 195 172 186 187 191 193 196 202 208 212 216 221 222 225 231 240 253 259 265 265
209 202 214 240 236 226 232 242 251 263 248 212 175 147 190 254 190 218 214 212 190 184 193 199 204 210 215 217 220 222 224 227 232 238 248 257 260 259
206 206 208 203 209 237 235 238 240 249 244 246 227 198 203 225 232 245 235 222 215 170 186 199 206 211 215 217 217 219 223 229 233 238 243 246 253 258
202 208 208 207 217 220 238 233 232 227 230 236 234 211 212 208 227 234 233 237 240 178 184 196 203 210 213 214 214 216 220 224 228 233 238 240 245 252
205 211 209 210 218 230 228 229 234 235 222 239 237 219 209 209 237 245 237 218 242 236 202 201 197 206 210 209 209 211 213 216 221 228 233 234 238 244
211 214 213 183 6 283 265 236 227 236 233 234 238 230 226 228 246 254 260 264 230 238 243 224 207 217 205 203 204 207 209 214 221 227 229 229 233 237
214 216 211 197 195 203 279 298 279 249 254 255 250 252 252 251 261 265 265 269 269 226 249 258 253 249 241 218 174 190 204 211 218 225 227 229 230 230
217 224 234 214 208 223 215 216 235 253 263 261 264 266 261 260 264 259 260 267 276 280 259 262 257 253 245 181 151 177 195 205 213 220 225 226 226 226
229 229 234 239 236 241 239 232 233 230 231 238 249 258 267 269 259 260 261 254 253 235 238 261 258 256 248 203 165 180 194 203 213 219 222 224 224 227
233 235 239 237 218 238 241 242 247 245 221 213 235 254 278 268 263 256 252 254 260 248 222 261 266 267 251 225 177 177 191 202 211 216 221 226 231 233
226 227 227 238 221 219 237 242 243 246 248 225 219 229 236 232 227 243 255 258 263 261 219 245 265 261 258 238 216 190 201 203 209 214 216 221 226 234
238 231 219 186 210 223 243 248 252 258 250 244 237 234 231 232 227 229 249 260 264 266 260 227 270 268 264 269 249 229 233 224 218 218 211 209 209 221
254 253 226 174 206 221 232 245 249 253 249 248 249 247 246 244 239 234 236 251 265 268 279 269 264 268 268 270 268 250 242 237 239 239 230 198 209 218
261 290 284 208 214 223 222 226 230 241 248 250 252 253 253 254 248 235 231 234 244 246 242 242 253 259 258 263 265 258 262 258 243 243 238 224 225 227
253 234 217 222 233 241 225 220 233 245 250 253 258 260 257 247 239 240 240 237 245 242 225 228 240 250 252 258 261 258 255 256 253 248 248 244 239 236
242 243 236 232 233 234 236 235 236 236 240 249 256 257 253 249 247 244 247 253 254 257 246 224 224 231 245 258 257 254 251 252 251 244 247 252 247 242
239 246 244 241 241 241 238 234 234 237 240 243 247 252 255 253 249 247 245 249 254 257 255 251 237 234 242 238 240 252 255 256 256 243 254 259 258 250
232 245 246 247 248 247 246 244 240 235 237 243 247 252 256 257 251 244 243 250 254 255 255 250 246 245 251 255 232 218 248 260 259 254 254 260 264 260
239 247 249 247 246 249 249 249 246 236 228 236 242 250 254 257 256 251 246 248 251 252 252 248 248 251 256 267 269 245 227 245 249 253 257 257 258 257
241 246 249 250 249 246 247 247 244 240 237 234 236 241 248 251 254 256 254 245 253 255 254 254 248 244 259 264 261 256 241 224 242 257 261 264 264 261
247 248 248 250 251 250 244 241 241 243 242 242 242 241 245 248 250 252 256 250 245 252 260 259 235 239 247 252 259 261 255 237 224 228 245 255 265 269
246 247 247 246 243 241 243 242 244 245 244 244 244 244 245 245 249 248 249 252 252 252 257 257 248 244 252 255 260 261 260 253 248 246 244 227 222 230
Height
1540 1539 1540 1540 1540 1540 1540 1541 1542 1541 1541 1541 1541 1540 1540 1539 1539 1539 1539 1538 1538 1538 1538 1538 1539 1539 1539 1539 1539 1538 1538 1537 1537 1536 1536 1536 1535 1535
1538 1538 1538 1539 1539 1539 1539 1539 1540 1540 1540 1540 1540 1539 1538 1539 1537 1537 1537 1536 1536 1536 1536 1536 1536 1537 1537 1537 1536 1536 1535 1535 1534 1534 1533 1533 1532 1532
1536 1537 1536 1536 1537 1538 1538 1538 1538 1539 1539 1539 1538 1537 1536 1536 1536 1536 1536 1535 1535 1535 1534 1534 1534 1535 1534 1534 1534 1534 1533 1532 1532 1531 1531 1530 1530 1529
1535 1535 1535 1535 1535 1536 1536 1536 1536 1536 1537 1537 1536 1536 1535 1534 1534 1534 1534 1534 1534 1533 1532 1532 1532 1532 1532 1532 1531 1531 1530 1530 1529 1528 1528 1527 1527 1526
1533 1533 1534 1534 1534 1534 1534 1535 1535 1535 1535 1535 1535 1534 1534 1533 1532 1532 1532 1531 1531 1531 1530 1529 1529 1529 1529 1529 1528 1528 1527 1527 1526 1525 1525 1524 1523 1523
1532 1532 1532 1532 1532 1532 1532 1532 1533 1533 1533 1533 1533 1533 1532 1531 1530 1530 1530 1529 1529 1529 1528 1527 1527 1526 1526 1525 1524 1524 1523 1523 1523 1522 1521 1521 1520 1519
1530 1530 1530 1530 1530 1530 1531 1531 1531 1531 1531 1531 1531 1531 1530 1530 1529 1528 1528 1527 1526 1526 1526 1525 1525 1524 1523 1522 1521 1520 1520 1519 1519 1518 1518 1517 1516 1516
1528 1528 1529 1528 1528 1528 1528 1528 1528 1528 1529 1529 1529 1529 1528 1528 1527 1526 1526 1525 1525 1524 1523 1523 1523 1522 1521 1520 1518 1517 1516 1516 1515 1515 1514 1513 1513 1512
1526 1526 1528 1527 1526 1526 1525 1525 1525 1525 1525 1526 1526 1526 1526 1525 1525 1524 1523 1522 1521 1521 1520 1520 1519 1518 1518 1516 1515 1514 1513 1512 1511 1510 1510 1509 1508 1508
1524 1524 1524 1524 1524 1523 1523 1523 1523 1523 1523 1523 1523 1523 1523 1522 1522 1521 1520 1519 1518 1517 1517 1517 1516 1515 1514 1513 1511 1510 1509 1508 1507 1506 1506 1505 1504 1504
1521 1521 1521 1521 1521 1521 1521 1520 1520 1520 1520 1520 1520 1519 1519 1519 1519 1518 1518 1517 1516 1516 1514 1514 1513 1512 1511 1510 1508 1506 1506 1505 1504 1503 1502 1501 1501 1500
1518 1518 1517 1517 1517 1517 1518 1518 1517 1517 1518 1517 1517 1516 1516 1515 1515 1515 1514 1514 1514 1513 1511 1510 1510 1509 1508 1507 1505 1504 1503 1502 1501 1500 1499 1498 1497 1497
1516 1515 1515 1513 1513 1514 1514 1514 1514 1514 1514 1514 1514 1513 1513 1512 1511 1511 1510 1510 1510 1510 1509 1507 1506 1506 1505 1504 1503 1502 1501 1500 1499 1498 1496 1495 1495 1494
1512 1512 1511 1510 1510 1510 1510 1510 1510 1510 1511 1511 1511 1510 1510 1509 1508 1507 1506 1506 1505 1505 1504 1503 1503 1502 1501 1500 1500 1499 1498 1497 1496 1495 1494 1493 1492 1491
1507 1507 1507 1506 1506 1506 1506 1506 1506 1506 1507 1507 1507 1506 1506 1505 1504 1503 1502 1501 1501 1500 1499 1499 1498 1498 1497 1497 1497 1496 1495 1495 1494 1493 1492 1491 1489 1488
1502 1502 1502 1502 1502 1502 1502 1502 1501 1502 1502 1502 1502 1502 1501 1501 1500 1499 1499 1498 1497 1496 1495 1494 1494 1494 1493 1493 1493 1492 1492 1492 1491 1490 1489 1488 1487 1486
1498 1498 1498 1498 1498 1497 1498 1498 1497 1497 1497 1497 1497 1497 1496 1496 1495 1495 1494 1494 1494 1493 1492 1490 1490 1489 1489 1489 1489 1488 1488 1488 1487 1486 1485 1485 1484 1483
1494 1494 1494 1494 1493 1493 1493 1493 1492 1492 1492 1492 1492 1492 1492 1491 1491 1490 1490 1490 1489 1489 1488 1487 1486 1486 1485 1485 1485 1484 1484 1484 1483 1482 1482 1481 1481 1480
1489 1489 1489 1489 1489 1489 1489 1488 1488 1487 1486 1486 1487 1487 1487 1486 1486 1486 1485 1485 1484 1484 1483 1483 1482 1482 1481 1480 1479 1479 1479 1479 1479 1478 1478 1477 1477 1476
1483 1484 1484 1484 1484 1484 1484 1483 1483 1482 1481 1481 1481 1481 1482 1482 1481 1481 1481 1480 1480 1480 1479 1478 1478 1477 1477 1477 1476 1475 1474 1474 1474 1474 1473 1473 1472 1471
1479 1479 1479 1479 1479 1478 1478 1478 1478 1477 1477 1476 1476 1476 1477 1477 1477 1476 1476 1475 1475 1475 1474 1474 1473 1473 1472 1472 1472 1471 1470 1470 1469 1469 1469 1469 1468 1467
1473 1473 1473 1473 1474 1474 1473 1473 1473 1473 1472 1472 1472 1472 1472 1472 1472 1471 1471 1471 1470 1470 1470 1470 1469 1469 1469 1468 1467 1467 1466 1465 1464 1464 1464 1464 1463 1463
1468 1468 1468 1468 1468 1468 1468 1468 1468 1467 1467 1467 1467 1467 1467 1467 1467 1467 1467 1466 1466 1466 1466 1466 1465 1465 1465 1464 1463 1462 1462 1461 1461 1460 1460 1459 1459 1458